AKST,Max TemperatureF,Mean TemperatureF,Min TemperatureF,Max Dew PointF,MeanDew PointF,Min DewpointF,Max Humidity, Mean Humidity, Min Humidity, Max Sea Level PressureIn, Mean Sea Level PressureIn, Min Sea Level PressureIn, Max VisibilityMiles, Mean VisibilityMiles, Min VisibilityMiles, Max Wind SpeedMPH, Mean Wind SpeedMPH, Max Gust SpeedMPH,PrecipitationIn, CloudCover, Events, WindDirDegrees
2014-2-1,33,27,21,27,23,16,93,83,70,30.27,30.22,30.16,10,10,1,5,2,,0.00,1,,196
2014-2-2,35,28,21,28,22,18,93,82,70,30.40,30.31,30.27,10,10,10,5,2,,0.00,1,,235
2014-2-3,35,27,19,21,18,14,93,75,44,30.57,30.48,30.40,10,10,10,6,3,,0.00,0,,231
2014-2-4,30,22,15,16,10,5,86,63,34,30.63,30.60,30.57,10,10,10,6,3,,0.00,0,,225
2014-2-5,30,22,14,16,9,3,86,64,32,30.61,30.56,30.47,10,10,10,7,3,,0.00,0,,229
2014-2-6,24,18,12,16,11,9,93,75,54,30.46,30.18,29.90,10,10,10,5,3,,0.00,0,,253
2014-2-7,23,16,10,12,9,5,92,76,54,30.10,29.99,29.88,10,10,10,6,1,,0.00,0,,217
2014-2-8,26,19,12,14,10,5,92,71,54,30.18,30.14,30.08,10,10,10,5,2,,0.00,0,,198
2014-2-9,30,21,12,12,5,0,85,58,32,30.05,30.02,29.98,10,10,10,4,1,,0.00,1,,160
2014-2-10,26,17,8,12,8,1,79,63,43,29.75,29.62,29.55,10,10,10,6,3,,0.00,4,,223
2014-2-11,23,21,19,18,13,9,86,73,63,29.73,29.51,29.27,10,7,2,7,2,,0.00,8,Rain-Snow,329
2014-2-12,24,20,17,16,13,9,80,69,59,29.57,29.52,29.43,10,10,7,12,6,,0.00,7,Snow,220
2014-2-13,35,24,14,30,22,9,87,77,51,29.42,29.38,29.26,10,6,1,9,5,,0.00,7,Snow,225
2014-2-14,39,37,35,32,30,28,81,73,65,29.45,29.26,28.96,10,9,5,17,10,30,0.00,8,Rain,102
2014-2-15,46,42,39,36,29,25,81,59,43,29.30,29.05,28.85,10,10,7,17,12,40,0.00,8,Rain,98
2014-2-16,37,34,30,28,26,23,87,73,56,29.30,29.22,29.12,10,9,5,7,2,,0.00,7,Snow,125
2014-2-17,39,36,33,30,28,19,87,72,52,29.37,29.31,29.16,10,9,3,15,6,29,0.00,7,Snow,127
2014-2-18,35,32,30,30,27,25,93,81,65,29.33,29.23,29.15,10,6,2,7,2,,0.00,8,Snow,64
2014-2-19,35,32,28,32,30,27,93,91,81,29.67,29.57,29.47,10,4,0,5,0,,0.00,7,Fog-Snow,211
2014-2-20,33,32,28,30,28,25,93,87,81,30.11,29.90,29.71,10,10,10,8,2,,0.00,6,Fog-Snow,190
2014-2-21,33,28,23,27,24,19,93,87,75,30.28,30.26,30.24,10,9,2,5,2,,0.00,5,Fog,180
2014-2-22,32,26,19,21,17,16,93,75,51,30.35,30.32,30.29,10,10,10,6,3,,0.00,1,,148
2014-2-23,35,26,17,18,12,5,86,58,30,30.27,30.20,30.12,10,10,10,7,2,,0.00,0,,207
2014-2-24,33,24,14,19,14,9,86,66,41,30.18,30.16,30.13,10,10,10,7,3,,0.00,0,,183
2014-2-25,37,28,19,25,20,16,93,66,45,30.18,30.14,30.08,10,10,10,7,1,,0.00,3,,217
2014-2-26,37,32,28,25,21,19,75,63,52,29.95,29.87,29.80,10,10,10,5,1,,0.00,0,,329
2014-2-27,39,32,24,28,24,16,86,72,48,29.93,29.87,29.81,10,10,10,5,1,,0.00,1,,59
2014-2-28,39,32,24,28,24,19,93,73,56,29.99,29.96,29.94,10,10,10,6,3,,0.00,0,,170